User: anonymous   Login
Location: Unspecified
(0.0000°N, 0.0000°E)
Time: 05:00:49
(UTC+00:00)
Language:

Tiangong 2 - Orbit

View from above orbital plane
View from above orbital plane
View from above satellite
View from above satellite

Ground track
Ground track

The orbit data is extracted from the following two-line orbital elements,

1 41765U 16057A   19142.71478009  .00002877  00000-0  36985-4 0  9994
2 41765  42.7819 118.7910 0006385  84.5281 262.6063 15.61570213153053
Epoch (UTC): 22 May 2019 17:09:17
Eccentricity: 0.0006385
inclination: 42.7819°
perigee height: 379 km
apogee height: 387 km
right ascension of ascending node: 118.7910°
argument of perigee: 84.5281°
revolutions per day: 15.61570213
mean anomaly at epoch: 262.6063°
orbit number at epoch: 15305

The dashed part of the orbit path shows where the satellite is in the earth's shadow,  

DLR